This is the latest recevied weather packets stored in our database for station/object K4MGY-13. If no packets are shown the sender has not sent any weather packets the latest 10 day(s).
| Time | Temp. | Humidity | Pressure | Rain* | Wind** | Luminosity | Snow |
|---|---|---|---|---|---|---|---|
| 1777832676 | 18.33° C | 31% | 1019.5 hPa | 0 mm | - | - | - |
| 1777832345 | 18.33° C | 32% | 1019.6 hPa | 0 mm | - | - | - |
| 1777832046 | 17.78° C | 31% | 1019.6 hPa | 0 mm | - | - | - |
| 1777831717 | 17.78° C | 34% | 1019.6 hPa | 0 mm | - | - | - |
| 1777831415 | 17.78° C | 33% | 1019.7 hPa | 0 mm | - | - | - |
| 1777831085 | 17.78° C | 34% | 1020 hPa | 0 mm | - | - | - |
| 1777830757 | 17.22° C | 34% | 1020 hPa | 0 mm | - | - | - |
| 1777830456 | 17.78° C | 34% | 1020 hPa | 0 mm | - | - | - |
| 1777830126 | 17.22° C | 37% | 1020.3 hPa | 0 mm | - | - | - |
| 1777829826 | 17.22° C | 36% | 1020.5 hPa | 0 mm | - | - | - |
| 1777829526 | 16.67° C | 38% | 1020.2 hPa | 0 mm | - | - | - |
| 1777829196 | 16.67° C | 36% | 1020.4 hPa | 0 mm | - | - | - |
| 1777828866 | 16.67° C | 38% | 1020.7 hPa | 0 mm | - | - | - |
| 1777828536 | 16.67° C | 36% | 1020.7 hPa | 0 mm | - | - | - |
| 1777828236 | 16.11° C | 36% | 1021 hPa | 0 mm | - | - | - |
| 1777827906 | 16.11° C | 40% | 1021 hPa | 0 mm | - | - | - |
| 1777827605 | 15.56° C | 37% | 1021.1 hPa | 0 mm | - | - | - |
| 1777827276 | 15.56° C | 38% | 1021 hPa | 0 mm | - | - | - |
| 1777826946 | 15.56° C | 37% | 1021.2 hPa | 0 mm | - | - | - |
| 1777826286 | 15.56° C | 38% | 1021.3 hPa | 0 mm | - | - | - |
| 1777825657 | 15.56° C | 36% | 1021.3 hPa | 0 mm | - | - | - |
| 1777825027 | 15.56° C | 38% | 1021.4 hPa | 0 mm | - | - | - |
| 1777824726 | 15.56° C | 37% | 1021.4 hPa | 0 mm | - | - | - |
| 1777824396 | 15° C | 38% | 1021.7 hPa | 0 mm | - | - | - |
| 1777824066 | 15° C | 40% | 1021.8 hPa | 0 mm | - | - | - |
* Rain latest hour (hover to see other rain measurements)
** Current wind speed in m/s (hover to see current wind gust speed)